sat.trackr.live / text

‹ back to catalog

STARLINK-2714

NORAD 48603 · 2021-041BC

PAYLOAD ACTIVE UNKNOWN

§ Identity

Operator
Country
US
Launch date
2021-05-15
Launch site
AFETR
Launch vehicle
Mass (kg)
RCS (m²)

Purposes: comms

External: N2YO · Heavens-Above · Gunter

§ Orbital elements

Epoch: 2026-09-19T15:24:10.319904Z

Period
94.01 min
Inclination
53.1591°
Eccentricity
0.0001123
Mean motion
15.31704812 rev/d
Perigee alt
470.0 km
Apogee alt
471.5 km
Semi-major
6,848.9 km
B*
1.1104e-5
RAAN
292.8520°
Arg perigee
120.2507°
Mean anomaly
239.8606°
Rev number
29,640

§ Raw data

STARLINK-27141 48603U 21041BC  26262.64178611 -.00000020  00000+0  11104-4 0  99942 48603  53.1591 292.8520 0001123 120.2507 239.8606 15.31704812296406

JSON: /api/v1/satellites/48603 · /tle

For live sub-satellite position, see the globe view (requires WebGL).

§ Visibility from observer

Set your observer location to see the next 7 days of passes ≥ 10°. The values pass through the URL so the page stays shareable.

No JS? Fill the form by hand. The geolocation button needs JavaScript.